Location: Lesignano de� Bagni
(44.6500°N, 10.3000°E)
Time: 15:04:32
(UTC+00:00)

Okean 1-7 - Pass Details

Date: 03 March 2021
Orbit: 589 x 619 km, 82.5° (Epoch: 19 April)

Event Time Altitude Azimuth Distance (km) Brightness Sun altitude
Rises 17:57:59 0° 1° (N) 2,896 6.5 -9.4°
Reaches altitude 10° 18:00:31 10° 14° (NNE) 1,982 5.5 -9.9°
Maximum altitude 18:04:16 27° 73° (ENE) 1,181 4.0 -10.6°
Drops below altitude 10° 18:07:58 10° 132° (SE) 1,953 5.2 -11.2°
Enters shadow 18:08:44 - 137° (SE) 2,220 5.5 -11.4°
